Weather History for Spirit of St Louis, MO

Change the Weather History Date:

Sunday, November 11, 2012

  Actual Average Record
Temperature  
Mean Temperature 53 °F -  
Max Temperature 69 °F 54 °F 75 °F (2010)
Min Temperature 37 °F 34 °F 24 °F (2011)
Degree Days  
Heating Degree Days 12    
Growing Degree Days 3 (Base 50)    
Moisture  
Dew Point 48 °F    
Average Humidity 78    
Maximum Humidity 94    
Minimum Humidity 54    
Precipitation  
Precipitation 0.46 in - - ()
Sea Level Pressure  
Sea Level Pressure 29.93 in    
Wind  
Wind Speed 12 mph (WSW)    
Max Wind Speed 18 mph    
Max Gust Speed 33 mph    
Visibility 8 miles    
Events Rain    
Averages and records for this station are not official NWS values.
T = Trace of Precipitation, MM = Missing Value Source: NWS Daily Summary

Daily Weather History Graph

Daily Weather History Graph

Search for Another Location

Airport:

Trip Planner

Search our weather history database for the weather conditions in past years. The results will help you decide how hot, cold, wet, or windy it might be!

Date:

Astronomy

Nov. 11, 2012 Rise Set
Actual Time 6:40 AM CST 4:52 PM CST
Civil Twilight 6:12 AM CST 5:20 PM CST
Nautical Twilight 5:40 AM CST 5:52 PM CST
Astronomical Twilight 5:09 AM CST 6:23 PM CST
Moon 3:56 AM CST (11/11) 3:14 PM CST (11/11)
Length of Visible Light 11h 07m
Length of Day
10h 11m
Waning Crescent, 7% of the Moon is Illuminated
Nov 11
Waning Crescent
Nov 13
New
Nov 20
First Quarter
Nov 28
Full
Dec 6
Last Quarter

Hourly Weather History & Observations

Time (CST) Temp. Windchill Dew Point Humidity Pressure Visibility Wind Dir Wind Speed Gust Speed Precip Events Conditions
12:54 AM 66.9 °F - 50.0 °F 54% 29.88 in 10.0 mi South 18.4 mph 26.5 mph N/A   Clear
1:54 AM 66.0 °F - 50.0 °F 56% 29.89 in 10.0 mi SSW 11.5 mph 21.9 mph N/A   Clear
2:54 AM 66.0 °F - 51.1 °F 59% 29.89 in 10.0 mi South 10.4 mph 25.3 mph N/A   Clear
3:54 AM 64.9 °F - 51.1 °F 61% 29.88 in 10.0 mi Variable 6.9 mph 17.3 mph N/A   Clear
4:54 AM 64.0 °F - 52.0 °F 65% 29.90 in 10.0 mi SSE 6.9 mph - N/A   Clear
5:54 AM 63.0 °F - 52.0 °F 67% 29.91 in 10.0 mi SSE 5.8 mph - N/A   Partly Cloudy
6:54 AM 63.0 °F - 53.1 °F 70% 29.90 in 10.0 mi SSE 9.2 mph - N/A   Overcast
7:54 AM 64.0 °F - 53.1 °F 67% 29.88 in 10.0 mi SSE 11.5 mph - N/A   Mostly Cloudy
8:54 AM 66.0 °F - 54.0 °F 65% 29.88 in 10.0 mi South 16.1 mph 28.8 mph N/A   Overcast
9:54 AM 69.1 °F - 55.0 °F 61% 29.85 in 10.0 mi South 18.4 mph 31.1 mph N/A   Mostly Cloudy
10:54 AM 68.0 °F - 54.0 °F 61% 29.83 in 10.0 mi South 12.7 mph 33.4 mph N/A   Overcast
11:54 AM 68.0 °F - 54.0 °F 61% 29.79 in 10.0 mi South 15.0 mph 29.9 mph N/A   Mostly Cloudy
12:54 PM 69.1 °F - 54.0 °F 58% 29.78 in 10.0 mi South 17.3 mph 25.3 mph N/A   Mostly Cloudy
1:54 PM 69.1 °F - 54.0 °F 58% 29.75 in 10.0 mi South 17.3 mph 25.3 mph N/A   Overcast
2:31 PM 64.4 °F - 57.2 °F 77% 29.82 in 4.0 mi WSW 15.0 mph 23.0 mph 0.02 in Rain Rain
2:40 PM 60.8 °F - 55.4 °F 82% 29.84 in 2.0 mi NW 15.0 mph 24.2 mph 0.05 in Rain Heavy Rain
2:54 PM 55.9 °F - 52.0 °F 87% 29.86 in 5.0 mi WNW 12.7 mph - 0.06 in Rain Light Rain
3:39 PM 53.6 °F - 51.8 °F 94% 29.90 in 5.0 mi West 12.7 mph - 0.06 in Rain Light Rain
3:47 PM 53.6 °F - 51.8 °F 94% 29.90 in 1.8 mi WNW 10.4 mph - 0.08 in Rain Heavy Rain
3:54 PM 54.0 °F - 51.1 °F 90% 29.90 in 3.0 mi WNW 11.5 mph 18.4 mph 0.10 in Rain Rain
4:54 PM 53.1 °F - 50.0 °F 89% 29.90 in 3.0 mi WNW 4.6 mph - 0.08 in Rain Light Rain
5:01 PM 53.6 °F - 50.0 °F 88% 29.91 in 6.0 mi West 4.6 mph - 0.01 in Rain Rain
5:54 PM 52.0 °F - 48.9 °F 89% 29.95 in 4.0 mi SSW 4.6 mph - 0.08 in Rain Rain
6:35 PM 51.8 °F - 50.0 °F 94% 29.96 in 6.0 mi West 3.5 mph - 0.02 in Rain Light Rain
6:52 PM 51.8 °F - 48.2 °F 88% 29.94 in 10.0 mi Calm Calm - 0.02 in Rain Light Rain
6:54 PM 52.0 °F - 48.9 °F 89% 29.94 in 10.0 mi West 3.5 mph - 0.02 in Rain Light Rain
7:15 PM 51.8 °F - 48.2 °F 88% 30.00 in 4.0 mi SW 9.2 mph - 0.02 in Rain Rain
7:54 PM 51.1 °F - 48.0 °F 89% 29.98 in 8.0 mi WSW 6.9 mph - 0.04 in Rain Light Rain
8:21 PM 50.0 °F - 46.4 °F 87% 30.00 in 8.0 mi NNW 15.0 mph - 0.02 in Rain Rain
8:54 PM 43.0 °F 35.4 °F 39.9 °F 89% 30.04 in 7.0 mi West 16.1 mph 23.0 mph 0.05 in Rain Rain
9:08 PM 42.8 °F 34.8 °F 37.4 °F 81% 30.04 in 6.0 mi WNW 17.3 mph 23.0 mph 0.02 in Rain Rain
9:54 PM 39.9 °F 31.8 °F 36.0 °F 86% 30.07 in 10.0 mi WNW 15.0 mph 28.8 mph 0.03 in Rain Light Rain
10:36 PM 39.2 °F 31.6 °F 35.6 °F 87% 30.08 in 10.0 mi WNW 12.7 mph - 0.00 in   Overcast
10:39 PM 39.2 °F 31.6 °F 35.6 °F 87% 30.08 in 10.0 mi WNW 12.7 mph - 0.00 in   Overcast
10:54 PM 39.0 °F 30.6 °F 35.1 °F 86% 30.09 in 10.0 mi WNW 15.0 mph - 0.00 in   Overcast
11:42 PM 37.4 °F 27.8 °F 33.8 °F 87% 30.11 in 10.0 mi WNW 17.3 mph 21.9 mph N/A   Overcast
11:54 PM 37.4 °F 28.2 °F 33.8 °F 87% 30.12 in 10.0 mi NW 16.1 mph 25.3 mph N/A   Overcast